Terug naar catalogus

STARLINK-30952

ActiefCommunicatieVLEO
NORAD 58405·PAYLOAD·🇺🇸 United States

Gelanceerd Nov 22, 2023 vanaf Cape Canaveral Space Force Station

Loading…

Volgende Passages (komende 24 uur)

TLE

VersSource: CelesTrak SupGP

Epoch: Sep 14, 2026, 21:17 UTC

1 58405C 23180D   26257.88729167  .00107400  00000+0  38900-2 0  2576
2 58405  43.0037  64.1779 0001486 281.1220 308.7624 15.27525071    16

Volg STARLINK-30952 in realtime met AllMySat

Download on the App Store